| time (UTC) | temp C | wind direction | speed KPH | gust KPH | rain 1hr cm | rain 24hr cm | rain mn cm | humidity % | barometer mb |
| 20260502151543 | 17 | 0 | 4.8 | 16.1 | 0.00 | 0.00 | 0.00 | 22 | 1018.4 |
| 20260502123048 | 3 | 0 | 0.0 | 0.0 | 0.00 | 0.00 | 0.00 | 58 | 1018.4 |
| 20260502121551 | 3 | 0 | 0.0 | 0.0 | 0.00 | 0.00 | 0.00 | 58 | 1018.5 |
| 20260502114548 | 3 | 0 | 0.0 | 0.0 | 0.00 | 0.00 | 0.00 | 55 | 1018.4 |
| 20260502113051 | 3 | 0 | 0.0 | 0.0 | 0.00 | 0.00 | 0.00 | 56 | 1018.4 |
| 20260502111551 | 3 | 0 | 0.0 | 0.0 | 0.00 | 0.00 | 0.00 | 54 | 1018.5 |
| 20260502110044 | 3 | 0 | 0.0 | 0.0 | 0.00 | 0.00 | 0.00 | 56 | 1018.6 |
| 20260502104549 | 3 | 0 | 0.0 | 0.0 | 0.00 | 0.00 | 0.00 | 56 | 1018.6 |
| 20260502103047 | 3 | 0 | 0.0 | 0.0 | 0.00 | 0.00 | 0.00 | 56 | 1018.7 |
| 20260502101550 | 3 | 0 | 0.0 | 0.0 | 0.00 | 0.00 | 0.00 | 54 | 1018.7 |
| 20260502070101 | 2 | 0 | 0.0 | 3.2 | 0.00 | 0.00 | 0.00 | 58 | 1020.3 |
| 20260502064541 | 2 | 251 | 0.0 | 4.8 | 0.00 | 0.00 | 0.00 | 59 | 1020.3 |
| 20260502063045 | 2 | 0 | 0.0 | 4.8 | 0.00 | 0.00 | 0.00 | 64 | 1020.5 |
| 20260502061550 | 3 | 0 | 0.0 | 3.2 | 0.00 | 0.00 | 0.00 | 64 | 1020.3 |
| 20260502060042 | 3 | 314 | 0.0 | 4.8 | 0.00 | 0.00 | 0.00 | 60 | 1020.3 |
| 20260502054544 | 3 | 320 | 0.0 | 12.9 | 0.00 | 0.00 | 0.00 | 61 | 1020.3 |
| 20260502053041 | 3 | 0 | 0.0 | 4.8 | 0.00 | 0.00 | 0.00 | 61 | 1020.3 |
| 20260502051603 | 4 | 0 | 0.0 | 4.8 | 0.00 | 0.00 | 0.00 | 62 | 1020.4 |
| 20260502050047 | 4 | 295 | 0.0 | 9.7 | 0.00 | 0.00 | 0.00 | 59 | 1020.4 |
| 20260502044541 | 3 | 0 | 0.0 | 3.2 | 0.00 | 0.00 | 0.00 | 62 | 1020.6 |
| 20260502043044 | 4 | 0 | 0.0 | 3.2 | 0.00 | 0.00 | 0.00 | 62 | 1020.6 |
| 20260502041602 | 4 | 0 | 0.0 | 3.2 | 0.00 | 0.00 | 0.00 | 60 | 1020.7 |
| 20260502040045 | 5 | 307 | 0.0 | 3.2 | 0.00 | 0.00 | 0.00 | 59 | 1020.7 |
| 20260502034545 | 4 | 0 | 0.0 | 0.0 | 0.00 | 0.00 | 0.00 | 61 | 1020.8 |
| 20260502033058 | 5 | 0 | 0.0 | 0.0 | 0.00 | 0.00 | 0.00 | 61 | 1020.7 |
| 20260502031542 | 5 | 0 | 0.0 | 0.0 | 0.00 | 0.00 | 0.00 | 59 | 1020.6 |
| 20260502030048 | 5 | 0 | 0.0 | 0.0 | 0.00 | 0.00 | 0.00 | 60 | 1020.5 |
| 20260502024540 | 5 | 0 | 0.0 | 0.0 | 0.00 | 0.00 | 0.00 | 59 | 1020.5 |
| 20260502023051 | 6 | 0 | 0.0 | 0.0 | 0.00 | 0.00 | 0.00 | 59 | 1020.3 |
| 20260502021542 | 6 | 0 | 0.0 | 0.0 | 0.00 | 0.00 | 0.00 | 59 | 1020.3 |
| 20260502020054 | 6 | 0 | 1.6 | 3.2 | 0.00 | 0.00 | 0.00 | 61 | 1020.1 |
| 20260502014549 | 7 | 0 | 0.0 | 0.0 | 0.00 | 0.00 | 0.00 | 57 | 1020.1 |
| 20260502013048 | 8 | 0 | 0.0 | 0.0 | 0.00 | 0.00 | 0.00 | 52 | 1020.0 |
| 20260502011546 | 9 | 0 | 0.0 | 0.0 | 0.00 | 0.00 | 0.00 | 47 | 1019.9 |
| 20260502010043 | 12 | 0 | 0.0 | 6.4 | 0.00 | 0.00 | 0.00 | 40 | 1019.8 |
| 20260502004541 | 13 | 0 | 0.0 | 4.8 | 0.00 | 0.00 | 0.00 | 35 | 1019.7 |
| 20260502003039 | 13 | 307 | 1.6 | 11.3 | 0.00 | 0.00 | 0.00 | 31 | 1019.7 |
| 20260502001542 | 13 | 342 | 1.6 | 14.5 | 0.00 | 0.00 | 0.00 | 30 | 1019.7 |
| 20260502000044 | 13 | 0 | 0.0 | 3.2 | 0.00 | 0.00 | 0.00 | 29 | 1019.7 |
| 20260501234544 | 14 | 296 | 1.6 | 14.5 | 0.00 | 0.00 | 0.00 | 27 | 1019.7 |
| 20260501233045 | 15 | 302 | 1.6 | 14.5 | 0.00 | 0.00 | 0.00 | 26 | 1019.7 |
| 20260501231556 | 17 | 313 | 0.0 | 16.1 | 0.00 | 0.00 | 0.00 | 26 | 1019.6 |
| 20260501230041 | 16 | 0 | 0.0 | 11.3 | 0.00 | 0.00 | 0.00 | 28 | 1019.6 |
| 20260501224544 | 17 | 316 | 3.2 | 19.3 | 0.00 | 0.00 | 0.00 | 25 | 1019.6 |
| 20260501223110 | 16 | 63 | 4.8 | 17.7 | 0.00 | 0.00 | 0.00 | 25 | 1019.6 |
| 20260501221551 | 16 | 204 | 0.0 | 16.1 | 0.00 | 0.00 | 0.00 | 29 | 1019.6 |
| 20260501220045 | 17 | 0 | 0.0 | 14.5 | 0.00 | 0.00 | 0.00 | 26 | 1019.6 |
| 20260501214549 | 17 | 0 | 0.0 | 16.1 | 0.00 | 0.00 | 0.00 | 27 | 1019.7 |
| 20260501213047 | 17 | 297 | 3.2 | 14.5 | 0.00 | 0.00 | 0.00 | 31 | 1019.7 |
| 20260501211546 | 17 | 285 | 4.8 | 17.7 | 0.00 | 0.00 | 0.00 | 24 | 1019.9 |
| 20260501210044 | 15 | 0 | 4.8 | 25.7 | 0.00 | 0.00 | 0.00 | 31 | 1019.9 |
| 20260501204550 | 16 | 323 | 6.4 | 22.5 | 0.00 | 0.00 | 0.00 | 25 | 1020.0 |
| 20260501203044 | 17 | 298 | 3.2 | 17.7 | 0.00 | 0.00 | 0.00 | 29 | 1019.9 |
| 20260501201543 | 16 | 296 | 4.8 | 19.3 | 0.00 | 0.00 | 0.00 | 28 | 1020.0 |
| 20260501200047 | 16 | 300 | 8.0 | 20.9 | 0.00 | 0.00 | 0.00 | 27 | 1020.1 |
| 20260501194546 | 17 | 288 | 6.4 | 19.3 | 0.00 | 0.00 | 0.00 | 26 | 1020.0 |
| 20260501193046 | 15 | 294 | 4.8 | 22.5 | 0.00 | 0.00 | 0.00 | 28 | 1019.9 |
| 20260501191543 | 16 | 0 | 4.8 | 16.1 | 0.00 | 0.00 | 0.00 | 31 | 1020.0 |
| 20260501190043 | 16 | 302 | 1.6 | 17.7 | 0.00 | 0.00 | 0.00 | 28 | 1019.9 |
| 20260501184542 | 15 | 279 | 0.0 | 16.1 | 0.00 | 0.00 | 0.00 | 30 | 1020.0 |
| 20260501183046 | 16 | 292 | 3.2 | 24.1 | 0.00 | 0.00 | 0.00 | 28 | 1020.1 |
| 20260501181546 | 15 | 300 | 1.6 | 17.7 | 0.00 | 0.00 | 0.00 | 28 | 1020.1 |
| 20260501180056 | 15 | 334 | 0.0 | 12.9 | 0.00 | 0.00 | 0.00 | 28 | 1020.1 |
| 20260501174600 | 15 | 11 | 1.6 | 22.5 | 0.00 | 0.00 | 0.00 | 31 | 1020.1 |
| 20260501173042 | 13 | 0 | 3.2 | 27.4 | 0.00 | 0.00 | 0.00 | 32 | 1020.0 |
| 20260501171546 | 15 | 278 | 4.8 | 24.1 | 0.00 | 0.00 | 0.00 | 30 | 1020.0 |
| 20260501170051 | 15 | 341 | 3.2 | 16.1 | 0.00 | 0.00 | 0.00 | 31 | 1020.1 |
| 20260501164543 | 13 | 289 | 6.4 | 22.5 | 0.00 | 0.00 | 0.00 | 34 | 1020.0 |
| 20260501163045 | 13 | 311 | 4.8 | 20.9 | 0.00 | 0.00 | 0.00 | 30 | 1019.9 |
| 20260501161545 | 12 | 298 | 6.4 | 22.5 | 0.00 | 0.00 | 0.00 | 31 | 1019.8 |
| 20260501160057 | 12 | 0 | 4.8 | 17.7 | 0.00 | 0.00 | 0.00 | 35 | 1019.8 |
| 20260501154547 | 12 | 304 | 6.4 | 24.1 | 0.00 | 0.00 | 0.00 | 33 | 1019.8 |
| 20260501153044 | 11 | 321 | 6.4 | 20.9 | 0.00 | 0.00 | 0.00 | 33 | 1019.8 |